Hourly Weather Bolshie Shirdany

Today, 20 June, Sunday

Time Temperature Precipitation Wind Pressure Humidity
00:00 +18°C° 0 mm 3 mps 756 mmHg 90%
01:00 +18°C° 0 mm 3 mps 756 mmHg 91%
02:00 +18°C° 0 mm 3 mps 756 mmHg 91%
03:00 +17°C° 0 mm 2 mps 756 mmHg 92%
04:00 +19°C° 0 mm 3 mps 756 mmHg 88%
05:00 +20°C° 0 mm 3 mps 756 mmHg 84%
06:00 +21°C° 0 mm 3 mps 756 mmHg 80%
07:00 +24°C° 0 mm 3 mps 756 mmHg 74%
08:00 +25°C° 0 mm 3 mps 756 mmHg 69%
09:00 +27°C° 0 mm 4 mps 756 mmHg 63%
10:00 +28°C° 0 mm 3 mps 756 mmHg 59%
11:00 +29°C° 0 mm 3 mps 756 mmHg 56%
12:00 +30°C° 0 mm 3 mps 756 mmHg 52%
13:00 +30°C° 0 mm 3 mps 756 mmHg 52%
14:00 +31°C° 0 mm 3 mps 756 mmHg 51%
15:00 +31°C° 0 mm 3 mps 756 mmHg 50%
16:00 +30°C° 0 mm 3 mps 756 mmHg 57%
17:00 +29°C° 0 mm 3 mps 756 mmHg 63%
18:00 +28°C° 0 mm 3 mps 756 mmHg 69%
19:00 +27°C° 0 mm 2 mps 756 mmHg 74%
20:00 +25°C° 0 mm 2 mps 756 mmHg 79%
21:00 +24°C° 0 mm 1 mps 756 mmHg 84%
22:00 +23°C° 0 mm 1 mps 756 mmHg 85%
23:00 +23°C° 0 mm 1 mps 756 mmHg 86%

Tomorrow, 21 June, Monday

Time Temperature Precipitation Wind Pressure Humidity
00:00 +23°C° 0 mm 1 mps 756 mmHg 87%
01:00 +23°C° 0 mm 2 mps 757 mmHg 86%
02:00 +23°C° 0 mm 2 mps 757 mmHg 86%
03:00 +21°C° 0 mm 2 mps 757 mmHg 86%
04:00 +23°C° 0 mm 2 mps 757 mmHg 85%
05:00 +23°C° 0 mm 2 mps 757 mmHg 83%
06:00 +24°C° 0 mm 2 mps 757 mmHg 82%
07:00 +25°C° 0 mm 2 mps 757 mmHg 76%
08:00 +27°C° 0 mm 3 mps 757 mmHg 70%
09:00 +28°C° 0 mm 3 mps 757 mmHg 64%
10:00 +29°C° 0 mm 3 mps 757 mmHg 61%
11:00 +30°C° 0 mm 3 mps 757 mmHg 57%
12:00 +31°C° 0 mm 3 mps 757 mmHg 54%
13:00 +31°C° 0 mm 3 mps 757 mmHg 53%
14:00 +31°C° 0 mm 3 mps 757 mmHg 52%
15:00 +31°C° 0 mm 3 mps 757 mmHg 51%
16:00 +30°C° 0 mm 3 mps 756 mmHg 56%
17:00 +30°C° 0 mm 3 mps 756 mmHg 61%
18:00 +29°C° 0 mm 3 mps 756 mmHg 67%
19:00 +27°C° 0 mm 3 mps 756 mmHg 72%
20:00 +26°C° 0 mm 2 mps 756 mmHg 78%
21:00 +24°C° 0 mm 2 mps 756 mmHg 84%
22:00 +23°C° 0 mm 2 mps 756 mmHg 86%
23:00 +23°C° 0 mm 2 mps 756 mmHg 87%

Day after tomorrow, 22 June, Tuesday

Time Temperature Precipitation Wind Pressure Humidity
00:00 +21°C° 0 mm 2 mps 756 mmHg 89%
01:00 +21°C° 0 mm 2 mps 757 mmHg 90%
02:00 +21°C° 0 mm 2 mps 757 mmHg 91%
03:00 +20°C° 0 mm 2 mps 757 mmHg 92%
04:00 +23°C° 0 mm 2 mps 757 mmHg 88%
05:00 +24°C° 0 mm 2 mps 757 mmHg 83%
06:00 +25°C° 0 mm 2 mps 757 mmHg 79%
07:00 +26°C° 0 mm 2 mps 757 mmHg 74%
08:00 +28°C° 0 mm 2 mps 757 mmHg 68%
09:00 +29°C° 0 mm 3 mps 757 mmHg 62%
10:00 +30°C° 0 mm 3 mps 757 mmHg 59%
11:00 +31°C° 0 mm 3 mps 757 mmHg 56%
12:00 +33°C° 0 mm 3 mps 757 mmHg 52%
13:00 +33°C° 0 mm 3 mps 757 mmHg 51%
14:00 +33°C° 0 mm 3 mps 757 mmHg 50%
15:00 +33°C° 0 mm 3 mps 757 mmHg 49%
16:00 +31°C° 0 mm 3 mps 757 mmHg 54%
17:00 +31°C° 0 mm 3 mps 756 mmHg 59%
18:00 +30°C° 0 mm 2 mps 756 mmHg 65%
19:00 +28°C° 0 mm 2 mps 756 mmHg 69%
20:00 +27°C° 0 mm 2 mps 756 mmHg 74%
21:00 +25°C° 0 mm 2 mps 756 mmHg 79%
22:00 +24°C° 0 mm 2 mps 756 mmHg 81%
23:00 +23°C° 0 mm 2 mps 756 mmHg 83%

23 June, Wednesday

Time Temperature Precipitation Wind Pressure Humidity
00:00 +23°C° 0 mm 2 mps 756 mmHg 86%
01:00 +21°C° 0 mm 2 mps 756 mmHg 87%
02:00 +21°C° 0 mm 2 mps 757 mmHg 88%
03:00 +21°C° 0 mm 2 mps 757 mmHg 89%
04:00 +23°C° 0 mm 2 mps 757 mmHg 86%
05:00 +24°C° 0 mm 2 mps 757 mmHg 82%
06:00 +25°C° 0 mm 2 mps 756 mmHg 78%
07:00 +26°C° 0 mm 2 mps 756 mmHg 73%
08:00 +28°C° 0 mm 3 mps 756 mmHg 67%
09:00 +29°C° 0 mm 3 mps 756 mmHg 61%
10:00 +30°C° 0 mm 3 mps 756 mmHg 57%
11:00 +31°C° 0 mm 3 mps 756 mmHg 53%
12:00 +33°C° 0 mm 3 mps 756 mmHg 49%
13:00 +33°C° 0 mm 3 mps 756 mmHg 48%
14:00 +33°C° 0 mm 4 mps 756 mmHg 48%
15:00 +33°C° 0 mm 4 mps 756 mmHg 48%
16:00 +32°C° 0 mm 4 mps 755 mmHg 53%
17:00 +31°C° 0 mm 3 mps 755 mmHg 59%
18:00 +30°C° 0 mm 3 mps 755 mmHg 65%
19:00 +28°C° 0 mm 3 mps 755 mmHg 70%
20:00 +27°C° 0 mm 2 mps 755 mmHg 75%
21:00 +25°C° 0 mm 2 mps 755 mmHg 81%
22:00 +25°C° 0 mm 2 mps 755 mmHg 82%
23:00 +24°C° 0 mm 2 mps 755 mmHg 84%

24 June, Thursday

Time Temperature Precipitation Wind Pressure Humidity
00:00 +23°C° 0 mm 2 mps 754 mmHg 86%
01:00 +23°C° 0 mm 1 mps 755 mmHg 86%
02:00 +22°C° 0 mm 1 mps 755 mmHg 87%
03:00 +22°C° 0 mm 1 mps 755 mmHg 87%
04:00 +23°C° 0 mm 1 mps 755 mmHg 83%
05:00 +24°C° 0 mm 2 mps 755 mmHg 78%
06:00 +25°C° 0 mm 2 mps 754 mmHg 74%
07:00 +27°C° 0 mm 3 mps 754 mmHg 69%
08:00 +29°C° 0 mm 3 mps 754 mmHg 65%
09:00 +30°C° 0 mm 4 mps 754 mmHg 60%
10:00 +32°C° 0 mm 4 mps 754 mmHg 56%
11:00 +33°C° 0 mm 4 mps 754 mmHg 51%
12:00 +35°C° 0 mm 4 mps 754 mmHg 46%
13:00 +35°C° 0 mm 4 mps 754 mmHg 45%
14:00 +35°C° 0 mm 4 mps 754 mmHg 45%
15:00 +35°C° 0 mm 4 mps 754 mmHg 45%
16:00 +34°C° 0 mm 4 mps 753 mmHg 51%
17:00 +33°C° 0 mm 4 mps 753 mmHg 57%
18:00 +32°C° 0 mm 4 mps 753 mmHg 63%
19:00 +29°C° 0 mm 3 mps 752 mmHg 69%
20:00 +28°C° 0 mm 3 mps 752 mmHg 75%
21:00 +26°C° 0 mm 2 mps 752 mmHg 82%
22:00 +26°C° 0 mm 2 mps 752 mmHg 82%
23:00 +25°C° 0 mm 2 mps 752 mmHg 83%

25 June, Friday

Time Temperature Precipitation Wind Pressure Humidity
00:00 +25°C° 0 mm 3 mps 752 mmHg 84%
01:00 +24°C° 0.1 mm 2 mps 752 mmHg 84%
02:00 +23°C° 0.1 mm 2 mps 752 mmHg 84%
03:00 +21°C° 0.1 mm 2 mps 752 mmHg 83%
04:00 +23°C° 0 mm 2 mps 752 mmHg 82%
05:00 +24°C° 0 mm 3 mps 752 mmHg 80%
06:00 +24°C° 0 mm 3 mps 752 mmHg 78%
07:00 +26°C° 0 mm 3 mps 752 mmHg 72%
08:00 +27°C° 0 mm 3 mps 752 mmHg 67%
09:00 +29°C° 0 mm 4 mps 752 mmHg 61%
10:00 +30°C° 0 mm 4 mps 752 mmHg 58%
11:00 +32°C° 0 mm 4 mps 752 mmHg 54%
12:00 +33°C° 0 mm 4 mps 752 mmHg 51%
13:00 +33°C° 0 mm 4 mps 751 mmHg 50%
14:00 +34°C° 0 mm 3 mps 751 mmHg 49%
15:00 +34°C° 0 mm 3 mps 750 mmHg 48%
16:00 +30°C° 0.7 mm 3 mps 751 mmHg 59%
17:00 +28°C° 0.7 mm 3 mps 751 mmHg 71%
18:00 +25°C° 0.7 mm 3 mps 751 mmHg 82%
19:00 +24°C° 0.4 mm 3 mps 751 mmHg 86%
20:00 +22°C° 0.4 mm 3 mps 751 mmHg 90%
21:00 +21°C° 0.4 mm 3 mps 751 mmHg 93%
22:00 +20°C° 0 mm 2 mps 751 mmHg 93%
23:00 +20°C° 0 mm 2 mps 751 mmHg 92%
Show more